FW4251 Weather Reports


time (UTC)temp
C
wind
direction
speed
KPH
gust
KPH
rain 1hr
cm
rain 24hr
cm
rain mn
cm
humidity
%
barometer
mb
20260510104550 10 360 3.2 8.0 0.00 0.00 0.00 96 1011.4
20260510104046 10 360 0.0 4.8 0.00 0.00 0.00 96 1011.4
20260510103545 10 360 1.6 6.4 0.00 0.00 0.00 96 1011.4
20260510103044 10 360 3.2 8.0 0.00 0.00 0.00 96 1011.3
20260510102545 10 360 3.2 8.0 0.00 0.00 0.00 96 1011.3
20260510102044 10 360 1.6 8.0 0.00 0.00 0.00 96 1011.2
20260510101544 10 360 3.2 9.7 0.00 0.00 0.00 96 1011.3
20260510101043 10 360 4.8 14.5 0.00 0.00 0.00 96 1011.4
20260510100543 10 360 4.8 14.5 0.00 0.00 0.00 96 1011.1
20260510095542 10 360 4.8 14.5 0.00 0.00 0.00 96 1011.0
20260510095045 10 360 3.2 16.1 0.00 0.00 0.00 96 1011.0
20260510094555 10 360 4.8 16.1 0.00 0.00 0.00 96 1011.0
20260510094041 10 360 3.2 14.5 0.00 0.00 0.00 96 1011.0
20260510093541 10 360 6.4 14.5 0.00 0.00 0.00 96 1010.9
20260510093041 10 360 3.2 12.9 0.00 0.00 0.00 96 1010.7
20260510092541 10 360 4.8 9.7 0.00 0.00 0.00 96 1010.7
20260510092045 10 360 3.2 9.7 0.00 0.00 0.00 96 1010.9
20260510091542 10 360 4.8 9.7 0.00 0.00 0.00 96 1010.8
20260510091041 10 360 4.8 9.7 0.00 0.00 0.00 96 1010.7
20260510090541 10 360 4.8 19.3 0.00 0.00 0.00 96 1010.5
20260510090047 10 360 6.4 19.3 0.00 0.00 0.00 96 1010.5
20260510085542 10 360 4.8 16.1 0.00 0.00 0.00 96 1010.6
20260510085040 10 360 3.2 14.5 0.00 0.00 0.00 96 1010.4
20260510084602 10 360 4.8 14.5 0.00 0.00 0.00 96 1010.5
20260510084041 10 360 4.8 14.5 0.00 0.00 0.00 96 1010.2
20260510083539 10 360 4.8 14.5 0.00 0.00 0.00 96 1010.4
20260510083039 10 360 4.8 14.5 0.00 0.00 0.00 96 1010.2
20260510082537 10 360 4.8 14.5 0.00 0.00 0.00 96 1010.5
20260510082037 10 360 4.8 14.5 0.00 0.00 0.00 96 1010.7
20260510081548 10 360 4.8 14.5 0.00 0.00 0.00 96 1010.7
20260510081037 10 360 6.4 17.7 0.00 0.00 0.00 96 1010.6
20260510080536 10 360 4.8 17.7 0.00 0.00 0.00 96 1010.5
20260510080035 10 360 3.2 9.7 0.00 0.00 0.00 96 1010.6
20260510075535 10 360 3.2 8.0 0.00 0.00 0.00 96 1010.7
20260510075035 10 360 3.2 8.0 0.00 0.00 0.00 96 1010.8
20260510074535 10 360 3.2 8.0 0.00 0.00 0.00 96 1010.9
20260510074035 10 360 0.0 4.8 0.00 0.00 0.00 96 1010.9
20260510073533 10 360 1.6 6.4 0.00 0.00 0.00 96 1010.9
20260510073033 10 360 1.6 8.0 0.00 0.00 0.00 96 1011.1
20260510072533 10 360 1.6 8.0 0.00 0.00 0.00 96 1010.9
20260510072036 10 360 3.2 12.9 0.00 0.00 0.00 96 1011.1
20260510071539 10 360 3.2 12.9 0.00 0.00 0.00 96 1011.0
20260510071033 10 360 3.2 12.9 0.00 0.00 0.00 96 1011.0
20260510070533 10 360 4.8 12.9 0.00 0.00 0.00 96 1011.1
20260510070038 10 360 3.2 9.7 0.00 0.00 0.00 96 1011.3
20260510065532 10 360 4.8 9.7 0.00 0.00 0.00 96 1011.2
20260510065032 10 360 1.6 9.7 0.00 0.00 0.00 96 1011.2
20260510064532 10 360 3.2 14.5 0.00 0.00 0.00 96 1011.3
20260510064030 10 360 3.2 14.5 0.00 0.00 0.00 96 1011.3
20260510063530 10 360 3.2 16.1 0.00 0.00 0.00 96 1011.3
20260510063034 10 360 4.8 17.7 0.00 0.00 0.00 96 1011.2
20260510062530 10 360 6.4 17.7 0.00 0.00 0.00 96 1011.1
20260510062032 10 360 4.8 12.9 0.00 0.00 0.00 96 1010.8
20260510061529 10 360 4.8 12.9 0.00 0.00 0.00 96 1010.8
20260510061033 10 360 3.2 12.9 0.00 0.00 0.00 96 1010.8
20260510060528 10 360 4.8 14.5 0.00 0.00 0.00 96 1010.9
20260510060025 10 360 6.4 14.5 0.00 0.00 0.00 96 1010.9
20260510055525 10 360 3.2 9.7 0.00 0.00 0.00 96 1010.9
20260510055025 10 360 3.2 9.7 0.00 0.00 0.00 96 1010.9
20260510054525 10 360 4.8 12.9 0.00 0.00 0.00 96 1010.8
20260510054023 10 360 4.8 12.9 0.00 0.00 0.00 96 1011.0
20260510053523 10 360 3.2 9.7 0.00 0.00 0.00 96 1010.8
20260510053026 10 360 4.8 12.9 0.00 0.00 0.00 96 1010.8
20260510052523 10 360 4.8 12.9 0.00 0.00 0.00 96 1010.9
20260510052023 10 360 3.2 9.7 0.00 0.00 0.00 96 1011.0
20260510051522 10 360 4.8 9.7 0.00 0.00 0.00 95 1011.0
20260510051023 10 360 1.6 6.4 0.00 0.00 0.00 95 1011.0
20260510050520 10 360 3.2 6.4 0.00 0.00 0.00 95 1010.9
20260510050020 10 360 3.2 6.4 0.00 0.00 0.00 96 1010.9
20260510045521 10 360 1.6 6.4 0.00 0.00 0.00 96 1010.7
20260510045020 10 360 1.6 6.4 0.00 0.00 0.00 96 1010.8
20260510044529 10 360 1.6 6.4 0.00 0.00 0.00 96 1010.9
20260510044017 10 360 1.6 6.4 0.00 0.00 0.00 96 1010.9
20260510043518 10 360 1.6 6.4 0.00 0.00 0.00 96 1010.8
20260510043017 10 360 1.6 6.4 0.00 0.00 0.00 96 1010.8
20260510042515 9 360 3.2 6.4 0.00 0.00 0.00 95 1011.0
20260510042015 9 360 1.6 4.8 0.00 0.00 0.00 95 1010.9
20260510041514 9 360 0.0 0.0 0.00 0.00 0.00 95 1010.7
20260510041013 9 360 0.0 0.0 0.00 0.00 0.00 95 1010.8
20260510040513 9 360 0.0 1.6 0.00 0.00 0.00 95 1010.7
20260510040013 9 360 0.0 3.2 0.00 0.00 0.00 95 1010.7
20260510035512 9 360 0.0 3.2 0.00 0.00 0.00 95 1010.7
20260510035012 10 219 0.0 4.8 0.00 0.00 0.00 95 1010.6
20260510034512 10 360 0.0 4.8 0.00 0.00 0.00 95 1010.7
20260510034012 10 360 1.6 6.4 0.00 0.00 0.00 95 1010.7
20260510033511 10 360 1.6 6.4 0.00 0.00 0.00 95 1010.7
20260510033011 10 360 0.0 6.4 0.00 0.00 0.00 95 1010.7
20260510032511 10 360 1.6 8.0 0.00 0.00 0.00 95 1010.7
20260510032011 10 360 1.6 8.0 0.00 0.00 0.00 95 1010.8
20260510031512 10 360 0.0 9.7 0.00 0.00 0.00 95 1010.8
20260510031013 10 360 0.0 9.7 0.00 0.00 0.00 95 1010.9
20260510030510 10 360 1.6 6.4 0.00 0.00 0.00 95 1011.0
20260510030010 10 360 1.6 3.2 0.00 0.00 0.00 95 1011.0
20260510025510 10 360 0.0 3.2 0.00 0.00 0.00 95 1010.9
20260510025010 10 360 0.0 4.8 0.00 0.00 0.00 95 1010.9
20260510024510 10 360 1.6 4.8 0.00 0.00 0.00 95 1011.0
20260510024008 10 360 1.6 3.2 0.00 0.00 0.00 95 1010.9
20260510023510 10 360 1.6 4.8 0.00 0.00 0.00 95 1010.8
20260510023009 10 360 1.6 4.8 0.00 0.00 0.00 95 1010.7
20260510022510 10 360 1.6 3.2 0.00 0.00 0.00 95 1010.6
20260510022009 10 360 1.6 4.8 0.00 0.00 0.00 95 1010.6
20260510021509 10 360 0.0 4.8 0.00 0.00 0.00 95 1010.5
20260510021008 10 138 0.0 6.4 0.00 0.00 0.00 95 1010.5
20260510020513 10 136 1.6 8.0 0.00 0.00 0.00 95 1010.4
20260510020008 11 154 1.6 4.8 0.00 0.00 0.00 95 1010.5
20260510015507 11 154 1.6 4.8 0.00 0.00 0.00 95 1010.6
20260510015007 11 154 1.6 8.0 0.00 0.00 0.00 95 1010.8
20260510014508 11 154 1.6 8.0 0.00 0.00 0.00 95 1010.9
20260510014008 11 189 1.6 8.0 0.00 0.00 0.00 95 1010.8
20260510013506 11 188 1.6 4.8 0.00 0.00 0.00 95 1010.7
20260510013008 10 188 0.0 4.8 0.00 0.00 0.00 95 1010.6
20260510012506 10 188 1.6 6.4 0.00 0.00 0.00 95 1010.6
20260510012007 11 188 3.2 6.4 0.00 0.00 0.00 95 1010.5
20260510011511 11 360 0.0 3.2 0.00 0.00 0.00 94 1010.4
20260510011006 11 360 0.0 3.2 0.00 0.00 0.00 95 1010.5
20260510010505 11 360 0.0 12.9 0.00 0.00 0.00 94 1010.3
20260510010005 11 165 1.6 12.9 0.00 0.00 0.00 94 1010.3
20260510005505 11 160 4.8 8.0 0.00 0.00 0.00 95 1010.4
20260510005104 11 182 1.6 4.8 0.00 0.00 0.00 95 1010.4
20260510004504 11 182 1.6 6.4 0.00 0.00 0.00 95 1010.3
20260510004005 11 188 1.6 6.4 0.00 0.00 0.00 95 1010.3
20260510003504 11 194 1.6 11.3 0.00 0.00 0.00 95 1010.3
20260510003004 11 195 1.6 11.3 0.00 0.00 0.00 95 1010.2
20260510002503 11 202 3.2 6.4 0.00 0.00 0.00 95 1010.1
20260510002003 11 148 1.6 8.0 0.00 0.00 0.00 95 1010.0
20260510001503 11 148 1.6 6.4 0.00 0.00 0.00 95 1009.9
20260510001003 11 146 3.2 6.4 0.00 0.00 0.00 95 1009.7
20260510000503 11 146 1.6 4.8 0.00 0.00 0.00 94 1009.7
20260510000004 11 146 1.6 8.0 0.00 0.00 0.00 95 1009.6
20260509235502 11 153 3.2 8.0 0.00 0.00 0.00 94 1009.6
20260509235003 11 201 3.2 6.4 0.00 0.00 0.00 95 1009.6
20260509234502 11 207 1.6 4.8 0.00 0.00 0.00 95 1009.5
20260509234001 11 207 1.6 9.7 0.00 0.00 0.00 94 1009.4
20260509233502 11 207 3.2 9.7 0.00 0.00 0.00 94 1009.2
20260509233001 11 153 1.6 4.8 0.00 0.00 0.00 94 1009.2
20260509232501 12 360 1.6 11.3 0.00 0.00 0.00 94 1009.1
20260509232101 12 152 1.6 11.3 0.00 0.00 0.00 94 1009.1
20260509231600 12 187 1.6 12.9 0.00 0.00 0.00 95 1009.2
20260509231059 12 190 4.8 12.9 0.00 0.00 0.00 94 1009.3
20260509230559 12 160 4.8 12.9 0.00 0.00 0.00 94 1009.2
20260509230100 12 202 4.8 11.3 0.00 0.00 0.00 94 1009.4
20260509225559 12 132 3.2 11.3 0.00 0.00 0.00 94 1009.3
20260509225200 12 159 4.8 11.3 0.00 0.00 0.00 95 1009.4
20260509224558 12 360 3.2 12.9 0.00 0.00 0.00 95 1009.4
20260509224059 12 167 3.2 9.7 0.00 0.00 0.00 95 1009.4
20260509223556 12 360 1.6 6.4 0.00 0.00 0.00 95 1009.4
20260509223102 12 137 1.6 9.7 0.00 0.00 0.00 95 1009.5
20260509222557 12 185 4.8 9.7 0.00 0.00 0.00 95 1009.6
20260509222055 12 186 3.2 8.0 0.00 0.00 0.00 95 1009.5
20260509221555 12 148 3.2 14.5 0.00 0.00 0.00 95 1009.4
20260509221055 12 124 4.8 14.5 0.00 0.00 0.00 95 1009.6
20260509220555 12 130 1.6 6.4 0.00 0.00 0.00 95 1009.4
20260509220054 12 163 3.2 8.0 0.00 0.00 0.00 95 1009.5
20260509215554 12 177 3.2 8.0 0.00 0.00 0.00 95 1009.5
20260509215054 12 158 1.6 9.7 0.00 0.00 0.00 95 1009.6
20260509214554 12 178 3.2 12.9 0.00 0.00 0.00 95 1009.5
20260509214053 12 360 4.8 14.5 0.00 0.00 0.00 95 1009.6
20260509213553 12 360 4.8 16.1 0.00 0.00 0.00 95 1009.6
20260509213053 12 360 1.6 16.1 0.00 0.00 0.00 95 1009.6
20260509212552 12 182 4.8 12.9 0.00 0.00 0.00 96 1009.6
20260509212051 12 236 6.4 16.1 0.00 0.00 0.00 95 1009.6
20260509211551 12 182 4.8 11.3 0.00 0.00 0.00 95 1009.6
20260509211050 12 207 4.8 9.7 0.00 0.00 0.00 95 1009.5
20260509210552 12 192 1.6 14.5 0.00 0.00 0.00 95 1009.4
20260509210057 12 157 4.8 14.5 0.00 0.00 0.00 95 1009.6
20260509205548 11 161 6.4 11.3 0.00 0.00 0.00 95 1009.6
20260509205051 11 241 6.4 16.1 0.00 0.00 0.00 95 1009.7
20260509204552 11 194 8.0 16.1 0.00 0.00 0.00 95 1009.9
20260509204045 11 171 3.2 11.3 0.00 0.00 0.00 95 1010.0
20260509203544 11 244 6.4 14.5 0.00 0.00 0.00 95 1010.1
20260509203044 11 217 4.8 14.5 0.00 0.00 0.00 95 1010.1
20260509202543 11 214 4.8 14.5 0.00 0.00 0.00 95 1010.1
20260509202042 11 178 6.4 14.5 0.00 0.00 0.00 95 1010.2
20260509201546 11 192 6.4 11.3 0.00 0.00 0.00 95 1010.3
20260509201041 11 196 4.8 12.9 0.00 0.00 0.00 95 1010.3
20260509200541 11 149 4.8 11.3 0.00 0.00 0.00 95 1010.4
20260509200053 11 193 4.8 12.9 0.00 0.00 0.00 95 1010.6
20260509195540 11 177 4.8 12.9 0.00 0.00 0.00 95 1010.7
20260509195038 11 171 6.4 14.5 0.00 0.00 0.00 95 1010.7
20260509194539 11 189 4.8 11.3 0.00 0.00 0.00 95 1010.8
20260509194038 11 171 4.8 12.9 0.00 0.00 0.00 95 1010.9
20260509193535 11 202 1.6 12.9 0.00 0.00 0.00 95 1010.9
20260509193036 11 200 3.2 11.3 0.00 0.00 0.00 95 1011.0
20260509192534 11 170 3.2 11.3 0.00 0.00 0.00 95 1011.0
20260509192034 11 179 4.8 12.9 0.00 0.00 0.00 95 1011.1
20260509191534 11 194 8.0 14.5 0.00 0.00 0.00 95 1011.3
20260509191032 11 175 4.8 11.3 0.00 0.00 0.00 95 1011.3
20260509190532 11 146 4.8 11.3 0.00 0.00 0.00 95 1011.4
20260509190035 11 194 6.4 11.3 0.00 0.00 0.00 95 1011.5
20260509185533 11 169 4.8 11.3 0.00 0.00 0.00 95 1011.5
20260509185033 11 192 3.2 11.3 0.00 0.00 0.00 95 1011.5
20260509184543 11 191 4.8 11.3 0.00 0.00 0.00 95 1011.4
20260509184030 11 179 3.2 8.0 0.00 0.00 0.00 95 1011.5
20260509183531 11 209 1.6 6.4 0.00 0.00 0.00 94 1011.6
20260509183033 11 205 3.2 8.0 0.00 0.00 0.00 95 1011.7
20260509182530 11 191 4.8 8.0 0.00 0.00 0.00 95 1011.5
20260509182029 11 208 3.2 8.0 0.00 0.00 0.00 94 1011.3
20260509181529 11 214 1.6 6.4 0.00 0.00 0.00 94 1011.4
20260509181029 11 214 1.6 8.0 0.00 0.00 0.00 95 1011.2
20260509180529 11 207 3.2 8.0 0.00 0.00 0.00 94 1011.3
20260509180028 11 333 1.6 4.8 0.00 0.00 0.00 94 1011.3
20260509175529 10 333 0.0 4.8 0.00 0.00 0.00 95 1011.3
20260509175028 10 333 1.6 6.4 0.00 0.00 0.00 94 1011.5
20260509174534 10 333 1.6 6.4 0.00 0.00 0.00 94 1011.4
20260509174027 10 335 0.0 3.2 0.00 0.00 0.00 94 1011.3
20260509173529 10 335 0.0 3.2 0.00 0.00 0.00 94 1011.2
20260509173026 10 335 0.0 3.2 0.00 0.00 0.00 94 1011.2
20260509172526 10 335 0.0 3.2 0.00 0.00 0.00 94 1011.1
20260509172026 10 335 0.0 3.2 0.00 0.00 0.00 94 1011.0
20260509171532 10 335 0.0 3.2 0.00 0.00 0.00 94 1011.2
20260509171025 10 335 0.0 3.2 0.00 0.00 0.00 94 1011.1
20260509170524 10 310 0.0 4.8 0.00 0.00 0.00 94 1011.4
20260509170024 10 310 0.0 4.8 0.00 0.00 0.00 94 1011.4
20260509165525 10 310 0.0 4.8 0.00 0.00 0.00 94 1011.5
20260509165021 10 310 1.6 4.8 0.00 0.00 0.00 94 1011.7
20260509164521 10 310 0.0 3.2 0.00 0.00 0.00 94 1011.6
20260509164019 10 310 0.0 3.2 0.00 0.00 0.00 94 1011.7
20260509163522 10 310 0.0 4.8 0.00 0.00 0.00 94 1011.9
20260509163022 10 310 1.6 4.8 0.00 0.00 0.00 94 1012.0
20260509162517 10 311 1.6 4.8 0.00 0.00 0.00 94 1012.1
20260509162016 10 311 0.0 3.2 0.00 0.00 0.00 94 1012.0
20260509161515 10 311 0.0 3.2 0.00 0.00 0.00 94 1012.1
20260509161014 10 311 0.0 3.2 0.00 0.00 0.00 93 1012.2
20260509160513 10 311 1.6 4.8 0.00 0.00 0.00 93 1012.3
20260509160014 10 311 1.6 4.8 0.00 0.00 0.00 93 1012.3
20260509155510 10 311 1.6 3.2 0.00 0.00 0.00 93 1012.3
20260509155009 10 311 0.0 3.2 0.00 0.00 0.00 93 1012.2
20260509154511 9 311 0.0 3.2 0.00 0.00 0.00 93 1012.3
20260509154009 9 311 1.6 3.2 0.00 0.00 0.00 92 1012.2
20260509153507 9 311 0.0 3.2 0.00 0.00 0.00 93 1012.3
20260509153013 9 311 1.6 4.8 0.00 0.00 0.00 93 1012.3
20260509152506 9 311 0.0 4.8 0.00 0.00 0.00 93 1012.2
20260509152008 9 311 3.2 6.4 0.00 0.00 0.00 93 1012.4
20260509151505 9 269 1.6 4.8 0.00 0.00 0.00 93 1012.3
20260509151005 9 269 1.6 3.2 0.00 0.00 0.00 93 1012.4
20260509150504 9 268 0.0 3.2 0.00 0.00 0.00 93 1012.5
20260509150004 9 268 0.0 3.2 0.00 0.00 0.00 93 1012.5
20260509145504 9 360 0.0 3.2 0.00 0.00 0.00 93 1012.5
20260509145006 9 360 0.0 3.2 0.00 0.00 0.00 93 1012.5
20260509144512 9 360 0.0 4.8 0.00 0.00 0.00 94 1012.4
20260509144005 8 360 1.6 4.8 0.00 0.00 0.00 93 1012.4
20260509143502 8 360 0.0 3.2 0.00 0.00 0.00 93 1012.5
20260509143001 8 360 0.0 4.8 0.00 0.00 0.00 94 1012.5
20260509142559 8 360 0.0 4.8 0.00 0.00 0.00 93 1012.5
20260509142102 8 360 0.0 3.2 0.00 0.00 0.00 94 1012.6
20260509141558 8 360 0.0 3.2 0.00 0.00 0.00 94 1012.5
20260509141058 8 360 1.6 3.2 0.00 0.00 0.00 94 1012.5
20260509140557 8 360 0.0 3.2 0.00 0.00 0.00 94 1012.4
20260509140106 8 360 0.0 6.4 0.00 0.00 0.00 94 1012.7
20260509135558 8 360 0.0 6.4 0.00 0.00 0.00 94 1012.7
20260509135059 8 360 1.6 6.4 0.00 0.00 0.00 94 1012.7
20260509134610 8 360 3.2 6.4 0.00 0.00 0.00 94 1012.7
20260509134055 8 360 1.6 4.8 0.00 0.00 0.00 94 1012.5
20260509133555 8 360 0.0 4.8 0.00 0.00 0.00 94 1012.6
20260509133054 8 360 1.6 4.8 0.00 0.00 0.00 94 1012.7
20260509132554 7 360 0.0 4.8 0.00 0.00 0.00 93 1012.6
20260509132058 8 360 0.0 3.2 0.00 0.00 0.00 94 1012.5
20260509131553 7 360 1.6 3.2 0.00 0.00 0.00 93 1012.5
20260509131053 7 360 0.0 3.2 0.00 0.00 0.00 94 1012.4
20260509130553 7 360 0.0 3.2 0.00 0.00 0.00 94 1012.4
20260509130059 7 360 0.0 3.2 0.00 0.00 0.00 94 1012.4
20260509125552 7 360 0.0 3.2 0.00 0.00 0.00 94 1012.4
20260509125051 7 360 0.0 3.2 0.00 0.00 0.00 94 1012.4
20260509124551 7 360 0.0 1.6 0.00 0.00 0.00 94 1012.4
20260509124050 7 360 0.0 1.6 0.00 0.00 0.00 94 1012.5
20260509123553 7 360 0.0 0.0 0.00 0.00 0.00 94 1012.5
20260509123109 7 360 0.0 0.0 0.00 0.00 0.00 94 1012.5
20260509122549 7 360 0.0 3.2 0.00 0.00 0.00 94 1012.6
20260509122048 7 360 0.0 3.2 0.00 0.00 0.00 94 1012.7
20260509121608 7 360 0.0 3.2 0.00 0.00 0.00 94 1012.8
20260509121049 7 360 0.0 3.2 0.00 0.00 0.00 94 1013.0
20260509120547 7 360 0.0 4.8 0.00 0.00 0.00 94 1013.0
20260509120046 7 360 0.0 4.8 0.00 0.00 0.00 94 1013.1
20260509115546 7 360 1.6 3.2 0.00 0.00 0.00 94 1013.0
20260509115046 7 360 0.0 3.2 0.00 0.00 0.00 94 1013.0
20260509114550 7 360 0.0 3.2 0.00 0.00 0.00 94 1013.0
20260509114047 6 290 0.0 3.2 0.00 0.00 0.00 94 1013.0
20260509113548 6 290 0.0 3.2 0.00 0.00 0.00 94 1012.9
20260509113047 6 290 0.0 3.2 0.00 0.00 0.00 94 1012.9
20260509112545 6 290 0.0 3.2 0.00 0.00 0.00 94 1013.0
20260509112045 6 289 0.0 1.6 0.00 0.00 0.00 94 1013.0
20260509111559 6 290 0.0 1.6 0.00 0.00 0.00 94 1013.0
20260509111043 6 290 0.0 1.6 0.00 0.00 0.00 94 1012.9
20260509110544 6 290 0.0 1.6 0.00 0.00 0.00 94 1012.9
20260509110042 6 290 0.0 1.6 0.00 0.00 0.00 94 1012.9
20260509105545 6 360 0.0 3.2 0.00 0.00 0.00 94 1012.8
20260509105042 6 360 0.0 3.2 0.00 0.00 0.00 94 1012.8